Regional Weather Roundup
Issued by NWS

Home | Current Version | Previous Version | Graphics & Text | Print | Product List | Glossary On
Versions: 1 2 3 4 5 6 7 8 9 10 11 12 13 14 15 16 17 18 19 20 21 22 23 24 25 26 27 28 29 30 31 32 33 34 35 36 37 38 39 40 41 42 43 44 45 46 47 48 49 50
000
ASUS43 KMKX 302011
RWRWI

WISCONSIN REGIONAL WEATHER ROUNDUP
NATIONAL WEATHER SERVICE MILWAUKEE/SULLIVAN WI
300 PM CDT THU OCT 30 2014

NOTE: "FAIR" INDICATES FEW OR NO CLOUDS BELOW 12,000 FEET WITH NO
SIGNIFICANT WEATHER AND/OR OBSTRUCTIONS TO VISIBILITY.

WIZ001-002-006>008-014>016-023>028-302100-
NORTHWEST WISCONSIN

CITY           SKY/WX    TMP DP  RH WIND       PRES   REMARKS
SUPERIOR ARPT  CLOUDY    44  33  65 NW9       30.09F
ASHLAND        CLOUDY    42  32  67 W8        30.07S
HAYWARD        CLOUDY    42  32  67 MISG      30.07S
SIREN          CLOUDY    42  33  72 NW8       30.10F
CUMBERLAND     CLOUDY    41  32  70 NW9       30.08S
RICE LAKE      CLOUDY    43  33  69 NW6       30.09S
CHETEK         CLOUDY    44  35  69 W6        30.08S
LADYSMITH      CLOUDY    43  34  72 W7        30.07F
EAU CLAIRE     CLOUDY    48  33  56 N5        30.07S
MENOMONIE      CLOUDY    48  33  55 NW7       30.07F
NEW RICHMOND   CLOUDY    46  33  60 N9        30.09S
OSCEOLA        CLOUDY    46  35  67 N8        30.13S
$$

WIZ003>005-009-010-017-018-302100-
NORTH CENTRAL WISCONSIN

CITY           SKY/WX    TMP DP  RH WIND       PRES   REMARKS
MANITOWISH WTR CLOUDY    38  32  78 NW10G16   30.02S WCI  31
ARBOR VITAE    CLOUDY    41  34  75 NW8       30.01F
WOODRUFF       CLOUDY    41  34  75 NW8       30.01F
RHINELANDER    CLOUDY    40  31  70 W8        30.02F WCI  34
EAGLE RIVER    CLOUDY    39  30  69 NW8       30.01S WCI  34
LAND O LAKES   CLOUDY    39  32  76 W8        30.01S WCI  33
PHILLIPS       CLOUDY    41  32  71 W8        30.03S
TOMAHAWK       CLOUDY    41  32  70 CALM      30.03S
MEDFORD        CLOUDY    42  32  68 NW10G16   30.03F
MERRILL        CLOUDY    44  33  64 W9        30.02S
$$

WIZ029-030-035-036-043>047-302100-
CENTRAL WISCONSIN

CITY           SKY/WX    TMP DP  RH WIND       PRES   REMARKS
WAUSAU         CLOUDY    45  33  63 W12       30.01F
MOSINEE          N/A     45  36  70 W7        30.03
MARSHFIELD     CLOUDY    47  35  63 NW8       30.03F
STEVENS POINT  CLOUDY    46  32  59 W8        30.03S
WAUPACA        CLOUDY    51  36  57 W5        30.03S
WAUTOMA        CLOUDY    51  35  54 W9        30.03F
WISC RAPIDS    CLOUDY    50  35  56 W6        30.04F
CAMP DOUGLAS   PTSUNNY   50  37  62 W12       30.05S
$$

WIZ011>013-019>022-031-037>040-048>050-302100-
NORTHEAST WISCONSIN

CITY           SKY/WX    TMP DP  RH WIND       PRES   REMARKS
ANTIGO         CLOUDY    43  33  68 W9        30.01S
SHAWANO        MOSUNNY   48  34  59 W8        30.02F
OCONTO         CLOUDY    45  34  65 W8        30.01F
STURGEON BAY   CLOUDY    45  34  65 W9        30.01F
GREEN BAY      CLOUDY    47  35  63 W12       30.02F
MANITOWOC      CLOUDY    49  36  61 W12       30.03F
APPLETON       PTSUNNY   48  34  57 W10       30.02F
CLINTONVILLE   MOSUNNY   46  34  61 NW6       30.02F
OSHKOSH        CLOUDY    49  35  58 W8        30.03F
$$

WIZ032>034-041-042-053>061-302100-
SOUTHWEST WISCONSIN

CITY           SKY/WX    TMP DP  RH WIND       PRES   REMARKS
LA CROSSE      CLOUDY    47  37  68 S3        30.07S
SPARTA         CLOUDY    47  35  64 SW3       30.07S
VIROQUA        CLOUDY    44  36  73 CALM      30.06S
BOSCOBEL       CLOUDY    50  36  58 CALM      30.07S
PRAIRIE DU CHI CLOUDY    48  36  61 CALM      30.06S
PLATTEVILLE    CLOUDY    49  37  63 CALM      30.06S
$$

WIZ056-057-062-063-064-067-068-302100-
SOUTH CENTRAL WISCONSIN

CITY           SKY/WX    TMP DP  RH WIND       PRES   REMARKS
REEDSBURG      CLOUDY    47  36  67 W7        30.05S
BARABOO/DELLS  CLOUDY    47  34  60 W6        30.05S
LONE ROCK      CLOUDY    53  36  52 W6        30.06F
MINERAL POINT  CLOUDY    50  36  57 CALM      30.05F
MADISON        CLOUDY    50  35  56 NW7       30.05S
MIDDLETON      CLOUDY    51  34  52 NW3       30.05F
WATERTOWN      CLOUDY    48  35  59 NW7       30.04F
MONROE         CLOUDY    48  36  61 NW3       30.05S
JANESVILLE     CLOUDY    52  34  50 W6        30.05S
$$

WIZ051-052-058>065-066-070>072-302100-
SOUTHEAST WISCONSIN

CITY           SKY/WX    TMP DP  RH WIND       PRES   REMARKS
MILWAUKEE      PTSUNNY   51  32  48 W9        30.04F
WAUKESHA       PTSUNNY   48  34  57 W10       30.04F
MILWAUKEE/TIMM CLOUDY    50  32  50 W7        30.05F
RACINE         PTSUNNY   51  33  50 W9        30.06F
BURLINGTON     CLOUDY    50  32  50 W9        30.04F
KENOSHA        CLOUDY    51  35  54 W12       30.05F
FOND DU LAC    CLOUDY    50  34  54 W8        30.03F
SHEBOYGAN      PTSUNNY   49  34  56 W10       30.03F
WEST BEND      CLOUDY    50  32  50 W9        30.03F
JUNEAU         CLOUDY    47  33  59 W5        30.05F
$$

LSZ147-162-302100-
LAKE SUPERIOR

STATION/POSITION TIME  TEMP    WIND        PRES    WAVE
                       AIR SEA DIR/SP/G            HT/PER
                 (UTC) (F)     (DEG/KT/KT) (MB)    (FT/S)
W MID LAKE BUOY  1950   43 45  280/ 10/ 12 1016.8F   1/ 3
DEVILS ISLAND    2000   43     300/ 12/ 14 1018.0F
PORT WING        1900   42     290/ 11/ 16 1019.0S
SAXON HARBOR     1940   44     290/ 10/ 13 1017.6F
$$

LMZ867-665-643>646-302100-
LAKE MICHIGAN

STATION/POSITION TIME  TEMP    WIND        PRES    WAVE
                       AIR SEA DIR/SP/G            HT/PER
                 (UTC) (F)     (DEG/KT/KT) (MB)    (FT/S)
CHAMBERS ISLAND  1900   45     230/  6/  9 1016.6F
N MID LAKE BUOY  1950   45 51  250/ 16/ 17 1015.9F   2/ 4
NORTHPORT PIER   1900   46     300/  3/ 10 1016.3F
KEWAUNEE LAKESHO 1900   46     280/  6/ 10 1016.0F
SHEBOYGAN LAKESH 2000   49 50  290/ 10/ 11 1017.5F
PORT WASHINGTON  1900   52     240/  7/ 12 1017.9
ATWATER BUOY     1900   50     270/  8/ 10 1018.7F
MILWAUKEE LAKESH 1900   49     260/  8/ 10   N/A
S MID LAKE BUOY  1950   48 53  230/ 10/ 12 1018.3F   2/ 4
KENOSHA   LAKESH 2000   51     240/  8/ 11 1017.6F
$$

TC  - TEMPERATURE IN CELSIUS
VSB - VISIBILITY IN STATUTE MILES
WCI - WIND CHILL INDEX
HX  - HEAT INDEX




USA.gov is the U.S. government's official web portal to all federal, state and local government web resources and services.